Marshalltown, IA

11:43 AM CST on February 21, 2017 (GMT -0600)
Marshalltown Municipal

Weather History for KMIW - September, 2013

Change the Weather History Date:

Sunday, September 8, 2013

  Actual Average Record
Temperature  
Mean Temperature 76 °F 66 °F  
Max Temperature 82 °F 77 °F 91 °F (2002)
Min Temperature 70 °F 54 °F 44 °F (2010)
Degree Days  
Heating Degree Days 0 2  
Month to date heating degree days 5 14  
Since 1 July heating degree days 26 35  
Cooling Degree Days 11 3  
Month to date cooling degree days 63 28  
Year to date cooling degree days 775 684  
Growing Degree Days 26 (Base 50)    
Moisture  
Dew Point 69 °F    
Average Humidity 81    
Maximum Humidity 97    
Minimum Humidity 65    
Precipitation  
Precipitation 0.00 in 0.11 in 1.46 in (2005)
Month to date precipitation 0.00 0.97  
Sea Level Pressure  
Sea Level Pressure 29.89 in    
Wind  
Wind Speed 11 mph (ENE)    
Max Wind Speed 18 mph    
Max Gust Speed 24 mph    
Visibility 8 miles    
Events      
T = Trace of Precipitation, MM = Missing Value Source: NWS Daily Summary

Daily Weather History Graph

Daily Weather History Graph

Search for Another Location

Airport or City:

Trip Planner

Search our weather history database for the weather conditions in past years. The results will help you decide how hot, cold, wet, or windy it might be!

Date:

Astronomy

Sep. 08, 2013 Rise Set
Actual Time 6:44 AM CDT 7:32 PM CDT
Civil Twilight 6:16 AM CDT 8:01 PM CDT
Nautical Twilight 5:42 AM CDT 8:34 PM CDT
Astronomical Twilight 5:07 AM CDT 9:09 PM CDT
Moon 10:07 AM CDT (9/8) 9:03 PM CDT (9/8)
Length of Visible Light 13h 44m
Length of Day
12h 48m
Waxing Crescent, 11% of the Moon is Illuminated
Sep 8
Waxing Crescent
Sep 12
First Quarter
Sep 19
Full
Sep 26
Last Quarter
Oct 4
New

Hourly Weather History & Observations

Time (CDT) Temp. Heat Index Dew Point Humidity Pressure Visibility Wind Dir Wind Speed Gust Speed Precip Events Conditions
12:53 AM 73.0 °F - 70.0 °F 90% 29.88 in 8.0 mi North 5.8 mph - N/A   Clear
1:53 AM 73.0 °F - 70.0 °F 90% 29.88 in 8.0 mi North 6.9 mph - N/A   Clear
2:53 AM 72.0 °F - 69.1 °F 91% 29.88 in 7.0 mi North 5.8 mph - N/A   Clear
3:53 AM 71.1 °F - 69.1 °F 93% 29.88 in 6.0 mi NNE 4.6 mph - N/A   Clear
4:53 AM 71.1 °F - 70.0 °F 96% 29.88 in 6.0 mi NE 10.4 mph - N/A   Clear
5:53 AM 71.1 °F - 70.0 °F 96% 29.89 in 6.0 mi ENE 11.5 mph - N/A   Clear
6:24 AM 71.6 °F - 69.8 °F 94% 29.93 in 6.0 mi ENE 15.0 mph 21.9 mph N/A   Partly Cloudy
6:45 AM 71.6 °F - 69.8 °F 94% 29.93 in 5.0 mi ENE 13.8 mph - N/A   Mostly Cloudy
6:53 AM 72.0 °F - 69.1 °F 91% 29.91 in 5.0 mi ENE 13.8 mph - N/A   Mostly Cloudy
7:53 AM 72.0 °F - 69.1 °F 91% 29.92 in 6.0 mi East 17.3 mph 23.0 mph N/A   Overcast
8:53 AM 73.0 °F - 69.1 °F 87% 29.93 in 6.0 mi East 11.5 mph - N/A   Overcast
9:53 AM 73.0 °F - 68.0 °F 84% 29.94 in 7.0 mi East 15.0 mph 23.0 mph N/A   Overcast
10:53 AM 73.9 °F - 68.0 °F 82% 29.95 in 8.0 mi East 17.3 mph - N/A   Overcast
11:24 AM 73.4 °F - 68.0 °F 83% 29.98 in 8.0 mi East 12.7 mph - N/A   Overcast
11:53 AM 75.9 °F - 68.0 °F 76% 29.94 in 8.0 mi East 11.5 mph - N/A   Overcast
12:53 PM 75.9 °F - 68.0 °F 76% 29.94 in 8.0 mi East 16.1 mph - N/A   Overcast
1:53 PM 77.0 °F - 68.0 °F 74% 29.91 in 10.0 mi East 16.1 mph - N/A   Overcast
2:53 PM 78.1 °F - 69.1 °F 74% 29.90 in 10.0 mi East 12.7 mph - N/A   Mostly Cloudy
3:53 PM 82.0 °F 85.9 °F 70.0 °F 67% 29.88 in 10.0 mi East 13.8 mph 19.6 mph N/A   Mostly Cloudy
4:03 PM 80.6 °F 83.9 °F 69.8 °F 70% 29.89 in 10.0 mi East 12.7 mph - N/A   Scattered Clouds
4:38 PM 80.6 °F 83.9 °F 69.8 °F 70% 29.89 in 10.0 mi East 12.7 mph - N/A   Mostly Cloudy
4:53 PM 82.0 °F 85.5 °F 69.1 °F 65% 29.86 in 10.0 mi East 13.8 mph - N/A   Overcast
5:53 PM 81.0 °F 84.4 °F 70.0 °F 69% 29.86 in 10.0 mi East 8.1 mph - N/A   Mostly Cloudy
6:53 PM 79.0 °F - 70.0 °F 74% 29.85 in 10.0 mi East 6.9 mph - N/A   Partly Cloudy
7:53 PM 75.0 °F - 70.0 °F 84% 29.85 in 9.0 mi East 5.8 mph - N/A   Clear
8:53 PM 73.0 °F - 69.1 °F 87% 29.85 in 10.0 mi East 9.2 mph - N/A   Clear
9:53 PM 71.1 °F - 69.1 °F 93% 29.86 in 9.0 mi East 8.1 mph - N/A   Clear
10:53 PM 71.1 °F - 69.1 °F 93% 29.85 in 8.0 mi East 9.2 mph - N/A   Clear
11:53 PM 70.0 °F - 68.0 °F 93% 29.84 in 7.0 mi East 8.1 mph - N/A   Clear